| time (UTC) | temp C | wind direction | speed KPH | gust KPH | rain 1hr cm | rain 24hr cm | rain mn cm | humidity % | barometer mb |
| 20260510183137 | 22 | 355 | 3.2 | 8.0 | 0.00 | 0.00 | 0.00 | 63 | 1008.4 |
| 20260510182640 | 22 | 344 | 1.6 | 8.0 | 0.00 | 0.00 | 0.00 | 64 | 1008.5 |
| 20260510181638 | 22 | 57 | 1.6 | 9.7 | 0.00 | 0.00 | 0.00 | 66 | 1008.5 |
| 20260510181137 | 22 | 145 | 3.2 | 12.9 | 0.00 | 0.00 | 0.00 | 66 | 1008.5 |
| 20260510180635 | 22 | 88 | 3.2 | 12.9 | 0.00 | 0.00 | 0.00 | 67 | 1008.5 |
| 20260510175629 | 20 | 73 | 1.6 | 6.4 | 0.00 | 0.00 | 0.00 | 72 | 1008.6 |
| 20260510173620 | 19 | 73 | 1.6 | 6.4 | 0.00 | 0.00 | 0.00 | 73 | 1008.6 |
| 20260510172615 | 18 | 73 | 0.0 | 4.8 | 0.00 | 0.00 | 0.00 | 76 | 1008.6 |
| 20260510172121 | 17 | 73 | 1.6 | 4.8 | 0.00 | 0.00 | 0.00 | 78 | 1008.6 |
| 20260510171615 | 17 | 73 | 1.6 | 4.8 | 0.00 | 0.00 | 0.00 | 79 | 1008.6 |
| 20260510171114 | 17 | 73 | 1.6 | 4.8 | 0.00 | 0.00 | 0.00 | 80 | 1008.5 |
| 20260510170612 | 17 | 73 | 1.6 | 4.8 | 0.00 | 0.00 | 0.00 | 79 | 1008.5 |
| 20260510170110 | 17 | 73 | 1.6 | 6.4 | 0.00 | 0.00 | 0.00 | 82 | 1008.5 |
| 20260510165606 | 16 | 73 | 1.6 | 8.0 | 0.00 | 0.00 | 0.00 | 83 | 1008.5 |
| 20260510165109 | 16 | 73 | 1.6 | 8.0 | 0.00 | 0.00 | 0.00 | 83 | 1008.5 |
| 20260510164607 | 15 | 73 | 1.6 | 6.4 | 0.00 | 0.00 | 0.00 | 85 | 1008.5 |
| 20260510164104 | 15 | 73 | 1.6 | 6.4 | 0.00 | 0.00 | 0.00 | 88 | 1008.6 |
| 20260510163606 | 15 | 73 | 3.2 | 11.3 | 0.00 | 0.00 | 0.00 | 88 | 1008.6 |
| 20260510163102 | 14 | 74 | 3.2 | 11.3 | 0.00 | 0.00 | 0.00 | 88 | 1008.6 |
| 20260510162600 | 14 | 36 | 1.6 | 11.3 | 0.00 | 0.00 | 0.00 | 91 | 1008.7 |
| 20260510162105 | 13 | 346 | 1.6 | 11.3 | 0.00 | 0.00 | 0.00 | 92 | 1008.7 |
| 20260510161558 | 13 | 103 | 1.6 | 8.0 | 0.00 | 0.00 | 0.00 | 93 | 1008.7 |
| 20260510161057 | 13 | 111 | 1.6 | 11.3 | 0.00 | 0.00 | 0.00 | 94 | 1008.7 |
| 20260510160555 | 12 | 87 | 3.2 | 11.3 | 0.00 | 0.00 | 0.00 | 94 | 1008.6 |
| 20260510160048 | 12 | 71 | 1.6 | 9.7 | 0.00 | 0.00 | 0.00 | 95 | 1008.6 |
| 20260510155546 | 12 | 110 | 1.6 | 9.7 | 0.00 | 0.00 | 0.00 | 95 | 1008.6 |
| 20260510155043 | 12 | 80 | 3.2 | 9.7 | 0.00 | 0.00 | 0.00 | 95 | 1008.6 |
| 20260510154544 | 12 | 125 | 3.2 | 8.0 | 0.00 | 0.00 | 0.00 | 95 | 1008.6 |
| 20260510154038 | 12 | 92 | 3.2 | 8.0 | 0.00 | 0.00 | 0.00 | 95 | 1008.6 |
| 20260510153536 | 11 | 59 | 3.2 | 9.7 | 0.00 | 0.00 | 0.00 | 96 | 1008.6 |
| 20260510153035 | 11 | 76 | 1.6 | 9.7 | 0.00 | 0.00 | 0.00 | 96 | 1008.6 |
| 20260510152536 | 11 | 98 | 1.6 | 8.0 | 0.00 | 0.00 | 0.00 | 96 | 1008.6 |
| 20260510152035 | 11 | 74 | 1.6 | 8.0 | 0.00 | 0.00 | 0.00 | 96 | 1008.6 |
| 20260510151534 | 11 | 88 | 0.0 | 8.0 | 0.00 | 0.00 | 0.00 | 96 | 1008.6 |
| 20260510151030 | 11 | 142 | 0.0 | 4.8 | 0.00 | 0.00 | 0.00 | 96 | 1008.4 |
| 20260510150529 | 11 | 231 | 0.0 | 4.8 | 0.00 | 0.00 | 0.00 | 96 | 1008.4 |
| 20260510150021 | 11 | 231 | 0.0 | 0.0 | 0.00 | 0.00 | 0.00 | 96 | 1008.4 |
| 20260510145521 | 11 | 232 | 0.0 | 0.0 | 0.00 | 0.00 | 0.00 | 96 | 1008.4 |
| 20260510145016 | 11 | 234 | 0.0 | 0.0 | 0.00 | 0.00 | 0.00 | 96 | 1008.4 |
| 20260510144515 | 11 | 251 | 0.0 | 0.0 | 0.00 | 0.00 | 0.00 | 96 | 1008.4 |
| 20260510144014 | 11 | 251 | 0.0 | 0.0 | 0.00 | 0.00 | 0.00 | 96 | 1008.4 |
| 20260510143512 | 11 | 251 | 0.0 | 1.6 | 0.00 | 0.00 | 0.00 | 96 | 1008.4 |
| 20260510143006 | 11 | 251 | 0.0 | 1.6 | 0.00 | 0.00 | 0.00 | 96 | 1008.4 |
| 20260510142005 | 10 | 162 | 0.0 | 4.8 | 0.00 | 0.00 | 0.00 | 96 | 1008.4 |
| 20260510141505 | 10 | 291 | 0.0 | 4.8 | 0.00 | 0.00 | 0.00 | 96 | 1008.4 |
| 20260510141006 | 10 | 292 | 0.0 | 1.6 | 0.00 | 0.00 | 0.00 | 96 | 1008.1 |
| 20260510140459 | 10 | 292 | 0.0 | 3.2 | 0.00 | 0.00 | 0.00 | 96 | 1008.1 |
| 20260510135455 | 10 | 276 | 1.6 | 3.2 | 0.00 | 0.00 | 0.00 | 95 | 1007.9 |
| 20260510133946 | 10 | 276 | 0.0 | 3.2 | 0.00 | 0.00 | 0.00 | 96 | 1007.9 |
| 20260510133446 | 10 | 276 | 0.0 | 3.2 | 0.00 | 0.00 | 0.00 | 95 | 1007.9 |
| 20260510132446 | 10 | 276 | 0.0 | 3.2 | 0.00 | 0.00 | 0.00 | 95 | 1007.8 |
| 20260510131940 | 10 | 276 | 1.6 | 4.8 | 0.00 | 0.00 | 0.00 | 95 | 1007.8 |
| 20260510130937 | 10 | 304 | 0.0 | 4.8 | 0.00 | 0.00 | 0.00 | 95 | 1007.8 |
| 20260510130437 | 10 | 304 | 0.0 | 3.2 | 0.00 | 0.00 | 0.00 | 95 | 1007.8 |
| 20260510125935 | 10 | 304 | 0.0 | 3.2 | 0.00 | 0.00 | 0.00 | 95 | 1007.8 |
| 20260510124432 | 10 | 304 | 1.6 | 6.4 | 0.00 | 0.00 | 0.00 | 95 | 1007.8 |
| 20260510123926 | 10 | 304 | 1.6 | 4.8 | 0.00 | 0.00 | 0.00 | 95 | 1007.8 |
| 20260510123425 | 10 | 304 | 0.0 | 4.8 | 0.00 | 0.00 | 0.00 | 95 | 1007.8 |
| 20260510122426 | 10 | 304 | 0.0 | 3.2 | 0.00 | 0.00 | 0.00 | 95 | 1007.8 |
| 20260510121920 | 10 | 304 | 0.0 | 3.2 | 0.00 | 0.00 | 0.00 | 95 | 1007.8 |
| 20260510121419 | 10 | 304 | 0.0 | 4.8 | 0.00 | 0.00 | 0.00 | 95 | 1007.8 |
| 20260510120923 | 10 | 304 | 1.6 | 6.4 | 0.00 | 0.00 | 0.00 | 95 | 1007.7 |
| 20260510115416 | 10 | 304 | 1.6 | 4.8 | 0.00 | 0.00 | 0.00 | 95 | 1007.5 |
| 20260510113909 | 10 | 304 | 1.6 | 6.4 | 0.00 | 0.00 | 0.00 | 95 | 1007.5 |
| 20260510113408 | 10 | 304 | 1.6 | 6.4 | 0.00 | 0.00 | 0.00 | 95 | 1007.5 |
| 20260510112906 | 10 | 304 | 1.6 | 6.4 | 0.00 | 0.00 | 0.00 | 95 | 1007.7 |
| 20260510112407 | 10 | 304 | 1.6 | 6.4 | 0.00 | 0.00 | 0.00 | 95 | 1007.7 |
| 20260510111900 | 10 | 304 | 1.6 | 6.4 | 0.00 | 0.00 | 0.00 | 95 | 1007.7 |
| 20260510111358 | 10 | 304 | 3.2 | 6.4 | 0.00 | 0.00 | 0.00 | 95 | 1007.8 |
| 20260510110851 | 10 | 304 | 3.2 | 6.4 | 0.00 | 0.00 | 0.00 | 95 | 1007.8 |
| 20260510110350 | 10 | 304 | 3.2 | 9.7 | 0.00 | 0.00 | 0.00 | 95 | 1007.8 |
| 20260510105848 | 10 | 304 | 3.2 | 9.7 | 0.00 | 0.00 | 0.00 | 95 | 1007.8 |
| 20260510105344 | 10 | 307 | 3.2 | 8.0 | 0.00 | 0.00 | 0.00 | 95 | 1007.8 |
| 20260510104843 | 10 | 307 | 3.2 | 6.4 | 0.00 | 0.00 | 0.00 | 94 | 1007.8 |
| 20260510103839 | 10 | 307 | 1.6 | 6.4 | 0.00 | 0.00 | 0.00 | 94 | 1007.9 |
| 20260510103333 | 10 | 307 | 3.2 | 8.0 | 0.00 | 0.00 | 0.00 | 94 | 1007.9 |
| 20260510102828 | 10 | 307 | 1.6 | 8.0 | 0.00 | 0.00 | 0.00 | 94 | 1007.9 |
| 20260510102326 | 10 | 331 | 1.6 | 3.2 | 0.00 | 0.00 | 0.00 | 94 | 1007.9 |
| 20260510101824 | 10 | 331 | 0.0 | 3.2 | 0.00 | 0.00 | 0.00 | 94 | 1007.9 |
| 20260510101326 | 10 | 331 | 0.0 | 3.2 | 0.00 | 0.00 | 0.00 | 94 | 1007.9 |
| 20260510100821 | 10 | 331 | 0.0 | 3.2 | 0.00 | 0.00 | 0.00 | 94 | 1007.9 |
| 20260510100324 | 10 | 331 | 1.6 | 3.2 | 0.00 | 0.00 | 0.00 | 94 | 1007.9 |
| 20260510095822 | 10 | 331 | 0.0 | 3.2 | 0.00 | 0.00 | 0.00 | 94 | 1007.9 |
| 20260510095319 | 10 | 331 | 0.0 | 1.6 | 0.00 | 0.00 | 0.00 | 94 | 1007.9 |
| 20260510094818 | 10 | 331 | 0.0 | 3.2 | 0.00 | 0.00 | 0.00 | 94 | 1007.9 |
| 20260510094312 | 10 | 331 | 0.0 | 3.2 | 0.00 | 0.00 | 0.00 | 94 | 1007.9 |
| 20260510093813 | 10 | 331 | 0.0 | 3.2 | 0.00 | 0.00 | 0.00 | 94 | 1007.9 |
| 20260510093313 | 10 | 331 | 0.0 | 3.2 | 0.00 | 0.00 | 0.00 | 94 | 1007.9 |
| 20260510092815 | 10 | 331 | 0.0 | 3.2 | 0.00 | 0.00 | 0.00 | 94 | 1008.0 |
| 20260510092307 | 10 | 331 | 0.0 | 3.2 | 0.00 | 0.00 | 0.00 | 94 | 1008.0 |
| 20260510091804 | 10 | 331 | 0.0 | 0.0 | 0.00 | 0.00 | 0.00 | 94 | 1008.0 |
| 20260510090759 | 10 | 331 | 0.0 | 1.6 | 0.00 | 0.00 | 0.00 | 94 | 1008.0 |
| 20260510090259 | 10 | 331 | 0.0 | 0.0 | 0.00 | 0.00 | 0.00 | 94 | 1008.0 |
| 20260510085754 | 10 | 331 | 0.0 | 0.0 | 0.00 | 0.00 | 0.00 | 94 | 1008.0 |
| 20260510083749 | 9 | 331 | 0.0 | 0.0 | 0.00 | 0.00 | 0.00 | 94 | 1008.0 |
| 20260510082240 | 9 | 331 | 0.0 | 0.0 | 0.00 | 0.00 | 0.00 | 93 | 1008.0 |
| 20260510081742 | 9 | 331 | 0.0 | 0.0 | 0.00 | 0.00 | 0.00 | 93 | 1008.0 |
| 20260510080739 | 9 | 331 | 0.0 | 0.0 | 0.00 | 0.00 | 0.00 | 93 | 1008.1 |
| 20260510080235 | 9 | 331 | 0.0 | 0.0 | 0.00 | 0.00 | 0.00 | 93 | 1008.1 |
| 20260510075735 | 9 | 331 | 0.0 | 0.0 | 0.00 | 0.00 | 0.00 | 93 | 1008.2 |
| 20260510075232 | 9 | 331 | 0.0 | 0.0 | 0.00 | 0.00 | 0.00 | 93 | 1008.2 |
| 20260510074731 | 9 | 331 | 0.0 | 0.0 | 0.00 | 0.00 | 0.00 | 92 | 1008.2 |
| 20260510074225 | 9 | 331 | 0.0 | 0.0 | 0.00 | 0.00 | 0.00 | 93 | 1008.3 |
| 20260510073724 | 9 | 331 | 0.0 | 0.0 | 0.00 | 0.00 | 0.00 | 93 | 1008.3 |
| 20260510073224 | 9 | 331 | 0.0 | 0.0 | 0.00 | 0.00 | 0.00 | 92 | 1008.3 |
| 20260510072718 | 9 | 331 | 0.0 | 0.0 | 0.00 | 0.00 | 0.00 | 92 | 1008.3 |
| 20260510072216 | 9 | 331 | 0.0 | 0.0 | 0.00 | 0.00 | 0.00 | 92 | 1008.3 |
| 20260510070712 | 10 | 331 | 0.0 | 0.0 | 0.00 | 0.00 | 0.00 | 92 | 1008.3 |
| 20260510065709 | 10 | 331 | 0.0 | 0.0 | 0.00 | 0.00 | 0.00 | 92 | 1008.3 |
| 20260510065207 | 10 | 331 | 0.0 | 0.0 | 0.00 | 0.00 | 0.00 | 92 | 1008.3 |
| 20260510064706 | 10 | 331 | 0.0 | 0.0 | 0.00 | 0.00 | 0.00 | 92 | 1008.3 |
| 20260510064206 | 10 | 331 | 0.0 | 0.0 | 0.00 | 0.00 | 0.00 | 92 | 1008.3 |
| 20260510063706 | 10 | 331 | 0.0 | 0.0 | 0.00 | 0.00 | 0.00 | 92 | 1008.3 |
| 20260510063159 | 10 | 331 | 0.0 | 0.0 | 0.00 | 0.00 | 0.00 | 92 | 1008.3 |
| 20260510062702 | 10 | 331 | 0.0 | 0.0 | 0.00 | 0.00 | 0.00 | 92 | 1008.3 |
| 20260510062159 | 10 | 331 | 0.0 | 0.0 | 0.00 | 0.00 | 0.00 | 92 | 1008.3 |
| 20260510061657 | 10 | 331 | 0.0 | 0.0 | 0.00 | 0.00 | 0.00 | 91 | 1008.3 |
| 20260510061158 | 10 | 331 | 0.0 | 0.0 | 0.00 | 0.00 | 0.00 | 91 | 1008.4 |
| 20260510060655 | 10 | 331 | 0.0 | 0.0 | 0.00 | 0.00 | 0.00 | 91 | 1008.4 |
| 20260510060152 | 10 | 331 | 0.0 | 0.0 | 0.00 | 0.00 | 0.00 | 91 | 1008.4 |
| 20260510055654 | 10 | 331 | 0.0 | 0.0 | 0.00 | 0.00 | 0.00 | 91 | 1008.4 |
| 20260510054659 | 10 | 331 | 0.0 | 0.0 | 0.00 | 0.00 | 0.00 | 91 | 1008.4 |
| 20260510054153 | 10 | 331 | 0.0 | 0.0 | 0.00 | 0.00 | 0.00 | 91 | 1008.4 |
| 20260510053648 | 10 | 331 | 0.0 | 0.0 | 0.00 | 0.00 | 0.00 | 91 | 1008.4 |
| 20260510052644 | 11 | 331 | 0.0 | 0.0 | 0.00 | 0.00 | 0.00 | 91 | 1008.4 |
| 20260510052141 | 11 | 331 | 0.0 | 0.0 | 0.00 | 0.00 | 0.00 | 91 | 1008.4 |
| 20260510051640 | 11 | 331 | 0.0 | 1.6 | 0.00 | 0.00 | 0.00 | 91 | 1008.4 |
| 20260510050640 | 11 | 331 | 0.0 | 3.2 | 0.00 | 0.00 | 0.00 | 91 | 1008.4 |
| 20260510050139 | 11 | 331 | 1.6 | 4.8 | 0.00 | 0.00 | 0.00 | 90 | 1008.4 |
| 20260510045633 | 11 | 331 | 0.0 | 4.8 | 0.00 | 0.00 | 0.00 | 90 | 1008.4 |
| 20260510045130 | 11 | 331 | 0.0 | 3.2 | 0.00 | 0.00 | 0.00 | 90 | 1008.4 |
| 20260510044630 | 11 | 331 | 0.0 | 3.2 | 0.00 | 0.00 | 0.00 | 90 | 1008.4 |
| 20260510043630 | 11 | 331 | 0.0 | 3.2 | 0.00 | 0.00 | 0.00 | 90 | 1008.4 |
| 20260510042118 | 12 | 331 | 0.0 | 3.2 | 0.00 | 0.00 | 0.00 | 89 | 1008.4 |
| 20260510041617 | 12 | 331 | 0.0 | 3.2 | 0.00 | 0.00 | 0.00 | 89 | 1008.4 |
| 20260510040608 | 12 | 331 | 0.0 | 4.8 | 0.00 | 0.00 | 0.00 | 88 | 1008.4 |
| 20260510040110 | 12 | 331 | 0.0 | 4.8 | 0.00 | 0.00 | 0.00 | 88 | 1008.4 |
| 20260510035609 | 12 | 331 | 0.0 | 3.2 | 0.00 | 0.00 | 0.00 | 87 | 1008.4 |
| 20260510035106 | 12 | 331 | 0.0 | 3.2 | 0.00 | 0.00 | 0.00 | 87 | 1008.4 |
| 20260510034603 | 12 | 331 | 0.0 | 3.2 | 0.00 | 0.00 | 0.00 | 87 | 1008.4 |
| 20260510034106 | 12 | 331 | 0.0 | 4.8 | 0.00 | 0.00 | 0.00 | 87 | 1008.3 |
| 20260510033601 | 12 | 331 | 0.0 | 4.8 | 0.00 | 0.00 | 0.00 | 87 | 1008.3 |
| 20260510032051 | 13 | 331 | 3.2 | 9.7 | 0.00 | 0.00 | 0.00 | 86 | 1008.0 |
| 20260510031548 | 13 | 319 | 3.2 | 9.7 | 0.00 | 0.00 | 0.00 | 85 | 1008.0 |
| 20260510031047 | 13 | 319 | 1.6 | 6.4 | 0.00 | 0.00 | 0.00 | 85 | 1007.5 |
| 20260510030544 | 13 | 317 | 1.6 | 9.7 | 0.00 | 0.00 | 0.00 | 85 | 1007.5 |
| 20260510030043 | 13 | 317 | 1.6 | 9.7 | 0.00 | 0.00 | 0.00 | 85 | 1007.5 |
| 20260510025540 | 13 | 317 | 3.2 | 11.3 | 0.00 | 0.00 | 0.00 | 84 | 1007.5 |
| 20260510025042 | 13 | 317 | 4.8 | 11.3 | 0.00 | 0.00 | 0.00 | 84 | 1007.5 |
| 20260510023538 | 13 | 321 | 3.2 | 6.4 | 0.00 | 0.00 | 0.00 | 82 | 1007.5 |
| 20260510023037 | 14 | 321 | 4.8 | 8.0 | 0.00 | 0.00 | 0.00 | 82 | 1007.5 |
| 20260510022536 | 14 | 320 | 3.2 | 8.0 | 0.00 | 0.00 | 0.00 | 81 | 1007.4 |
| 20260510021535 | 15 | 321 | 4.8 | 9.7 | 0.00 | 0.00 | 0.00 | 80 | 1007.4 |
| 20260510021034 | 15 | 320 | 3.2 | 8.0 | 0.00 | 0.00 | 0.00 | 79 | 1007.4 |
| 20260510020531 | 15 | 320 | 3.2 | 9.7 | 0.00 | 0.00 | 0.00 | 78 | 1007.4 |
| 20260510020033 | 15 | 320 | 4.8 | 11.3 | 0.00 | 0.00 | 0.00 | 77 | 1007.4 |
| 20260510015529 | 15 | 323 | 4.8 | 11.3 | 0.00 | 0.00 | 0.00 | 77 | 1007.4 |
| 20260510015028 | 16 | 322 | 6.4 | 14.5 | 0.00 | 0.00 | 0.00 | 77 | 1007.4 |
| 20260510014021 | 16 | 313 | 6.4 | 17.7 | 0.00 | 0.00 | 0.00 | 77 | 1007.4 |
| 20260510013521 | 16 | 304 | 6.4 | 17.7 | 0.00 | 0.00 | 0.00 | 76 | 1007.4 |
| 20260510013017 | 16 | 342 | 6.4 | 17.7 | 0.00 | 0.00 | 0.00 | 76 | 1007.4 |
| 20260510012515 | 16 | 301 | 8.0 | 17.7 | 0.00 | 0.00 | 0.00 | 76 | 1007.4 |
| 20260510011513 | 16 | 314 | 8.0 | 14.5 | 0.00 | 0.00 | 0.00 | 75 | 1007.4 |
| 20260510011007 | 16 | 316 | 8.0 | 19.3 | 0.00 | 0.00 | 0.00 | 75 | 1007.4 |
| 20260510010510 | 16 | 318 | 8.0 | 19.3 | 0.00 | 0.00 | 0.00 | 74 | 1007.4 |
| 20260510010004 | 16 | 319 | 8.0 | 17.7 | 0.00 | 0.00 | 0.00 | 74 | 1007.4 |
| 20260510005500 | 16 | 288 | 9.7 | 16.1 | 0.00 | 0.00 | 0.00 | 73 | 1007.4 |
| 20260510003455 | 18 | 302 | 8.0 | 16.1 | 0.00 | 0.00 | 0.00 | 70 | 1007.4 |
| 20260510002954 | 18 | 324 | 6.4 | 16.1 | 0.00 | 0.00 | 0.00 | 68 | 1007.4 |
| 20260510002453 | 18 | 315 | 8.0 | 14.5 | 0.00 | 0.00 | 0.00 | 69 | 1007.3 |
| 20260510001454 | 18 | 318 | 9.7 | 24.1 | 0.00 | 0.00 | 0.00 | 68 | 1007.3 |
| 20260510000951 | 18 | 301 | 8.0 | 19.3 | 0.00 | 0.00 | 0.00 | 69 | 1007.3 |
| 20260510000448 | 18 | 342 | 8.0 | 19.3 | 0.00 | 0.00 | 0.00 | 68 | 1007.3 |
| 20260509235948 | 18 | 338 | 9.7 | 20.9 | 0.00 | 0.00 | 0.00 | 68 | 1007.3 |
| 20260509235445 | 18 | 314 | 9.7 | 20.9 | 0.00 | 0.00 | 0.00 | 66 | 1007.3 |
| 20260509234944 | 19 | 319 | 8.0 | 19.3 | 0.00 | 0.00 | 0.00 | 66 | 1007.3 |
| 20260509234442 | 19 | 43 | 9.7 | 17.7 | 0.00 | 0.00 | 0.00 | 67 | 1007.3 |
| 20260509233443 | 19 | 326 | 9.7 | 19.3 | 0.00 | 0.00 | 0.00 | 67 | 1007.1 |
| 20260509232938 | 19 | 316 | 11.3 | 20.9 | 0.00 | 0.00 | 0.00 | 67 | 1007.1 |
| 20260509232435 | 19 | 337 | 11.3 | 20.9 | 0.00 | 0.00 | 0.00 | 66 | 1007.0 |
| 20260509231933 | 19 | 44 | 11.3 | 20.9 | 0.00 | 0.00 | 0.00 | 67 | 1007.0 |
| 20260509231429 | 19 | 309 | 9.7 | 20.9 | 0.00 | 0.00 | 0.00 | 65 | 1007.0 |
| 20260509230929 | 20 | 302 | 9.7 | 20.9 | 0.00 | 0.00 | 0.00 | 66 | 1007.0 |
| 20260509230432 | 19 | 330 | 9.7 | 22.5 | 0.00 | 0.00 | 0.00 | 66 | 1007.0 |
| 20260509225931 | 20 | 292 | 9.7 | 22.5 | 0.00 | 0.00 | 0.00 | 65 | 1007.0 |
| 20260509225426 | 19 | 308 | 9.7 | 20.9 | 0.00 | 0.00 | 0.00 | 66 | 1007.1 |
| 20260509224924 | 19 | 334 | 11.3 | 20.9 | 0.00 | 0.00 | 0.00 | 67 | 1007.1 |
| 20260509223922 | 19 | 306 | 11.3 | 24.1 | 0.00 | 0.00 | 0.00 | 66 | 1007.4 |
| 20260509223421 | 20 | 323 | 11.3 | 24.1 | 0.00 | 0.00 | 0.00 | 66 | 1007.4 |
| 20260509222918 | 19 | 297 | 11.3 | 20.9 | 0.00 | 0.00 | 0.00 | 66 | 1007.4 |
| 20260509222418 | 20 | 315 | 9.7 | 22.5 | 0.00 | 0.00 | 0.00 | 65 | 1007.5 |
| 20260509221915 | 19 | 322 | 11.3 | 25.7 | 0.00 | 0.00 | 0.00 | 66 | 1007.5 |
| 20260509220414 | 20 | 316 | 11.3 | 20.9 | 0.00 | 0.00 | 0.00 | 65 | 1007.5 |
| 20260509215913 | 20 | 340 | 11.3 | 22.5 | 0.00 | 0.00 | 0.00 | 64 | 1007.6 |
| 20260509214909 | 21 | 321 | 9.7 | 20.9 | 0.00 | 0.00 | 0.00 | 64 | 1007.6 |
| 20260509214406 | 20 | 324 | 11.3 | 20.9 | 0.00 | 0.00 | 0.00 | 65 | 1007.8 |
| 20260509213901 | 20 | 328 | 11.3 | 22.5 | 0.00 | 0.00 | 0.00 | 65 | 1007.8 |
| 20260509212858 | 20 | 322 | 9.7 | 22.5 | 0.00 | 0.00 | 0.00 | 63 | 1007.7 |
| 20260509211858 | 21 | 318 | 9.7 | 19.3 | 0.00 | 0.00 | 0.00 | 63 | 1007.7 |
| 20260509211358 | 21 | 281 | 9.7 | 19.3 | 0.00 | 0.00 | 0.00 | 63 | 1007.9 |
| 20260509210357 | 21 | 310 | 9.7 | 20.9 | 0.00 | 0.00 | 0.00 | 62 | 1007.9 |
| 20260509205852 | 21 | 321 | 9.7 | 20.9 | 0.00 | 0.00 | 0.00 | 62 | 1008.0 |
| 20260509205353 | 21 | 286 | 9.7 | 19.3 | 0.00 | 0.00 | 0.00 | 63 | 1008.0 |
| 20260509204851 | 21 | 323 | 9.7 | 19.3 | 0.00 | 0.00 | 0.00 | 63 | 1008.0 |
| 20260509204347 | 21 | 0 | 9.7 | 19.3 | 0.00 | 0.00 | 0.00 | 62 | 1008.0 |
| 20260509203344 | 21 | 0 | 8.0 | 16.1 | 0.00 | 0.00 | 0.00 | 62 | 1008.0 |
| 20260509202846 | 21 | 29 | 6.4 | 16.1 | 0.00 | 0.00 | 0.00 | 62 | 1008.1 |
| 20260509202344 | 21 | 326 | 6.4 | 16.1 | 0.00 | 0.00 | 0.00 | 63 | 1008.1 |
| 20260509201342 | 21 | 321 | 6.4 | 16.1 | 0.00 | 0.00 | 0.00 | 63 | 1008.3 |
| 20260509200840 | 21 | 311 | 6.4 | 16.1 | 0.00 | 0.00 | 0.00 | 63 | 1008.3 |
| 20260509200340 | 21 | 322 | 8.0 | 16.1 | 0.00 | 0.00 | 0.00 | 65 | 1008.3 |
| 20260509195837 | 21 | 327 | 6.4 | 16.1 | 0.00 | 0.00 | 0.00 | 63 | 1008.4 |
| 20260509195337 | 21 | 346 | 6.4 | 17.7 | 0.00 | 0.00 | 0.00 | 64 | 1008.4 |
| 20260509194835 | 20 | 329 | 8.0 | 17.7 | 0.00 | 0.00 | 0.00 | 66 | 1008.4 |
| 20260509193828 | 20 | 342 | 8.0 | 17.7 | 0.00 | 0.00 | 0.00 | 67 | 1008.6 |
| 20260509193327 | 20 | 327 | 6.4 | 16.1 | 0.00 | 0.00 | 0.00 | 68 | 1008.6 |
| 20260509192320 | 19 | 327 | 8.0 | 19.3 | 0.00 | 0.00 | 0.00 | 70 | 1008.6 |
| 20260509191820 | 19 | 311 | 9.7 | 19.3 | 0.00 | 0.00 | 0.00 | 69 | 1008.6 |
| 20260509191320 | 19 | 340 | 11.3 | 19.3 | 0.00 | 0.00 | 0.00 | 69 | 1008.7 |
| 20260509190318 | 20 | 345 | 9.7 | 16.1 | 0.00 | 0.00 | 0.00 | 67 | 1008.7 |
| 20260509185812 | 19 | 348 | 9.7 | 17.7 | 0.00 | 0.00 | 0.00 | 67 | 1008.6 |
| 20260509185313 | 20 | 319 | 9.7 | 20.9 | 0.00 | 0.00 | 0.00 | 66 | 1008.6 |
| 20260509184814 | 20 | 319 | 8.0 | 20.9 | 0.00 | 0.00 | 0.00 | 67 | 1008.6 |
| 20260509184314 | 20 | 303 | 8.0 | 16.1 | 0.00 | 0.00 | 0.00 | 67 | 1008.6 |
| 20260509183809 | 21 | 313 | 8.0 | 14.5 | 0.00 | 0.00 | 0.00 | 65 | 1008.6 |
| 20260509183307 | 21 | 307 | 6.4 | 11.3 | 0.00 | 0.00 | 0.00 | 65 | 1008.6 |